Location: Devore Heights
(34.2372°N, 117.4156°W)
Time: 19:56:18
(UTC+00:00)

S-56A Canister/Altair - Pass Details

Date: 16 September 2024
Orbit: 636 x 2487 km, 38.9° (Epoch: 14 October)

Event Time Altitude Azimuth Distance (km) Brightness Sun altitude
Rises 09:27:55 0° 283° (WNW) 4,882 - -46.0°
Reaches altitude 10° 09:31:31 10° 271° (W) 4,162 - -45.6°
Maximum altitude 09:40:32 27° 220° (SW) 3,519 - -44.3°
Drops below altitude 10° 09:51:30 10° 171° (S) 5,080 - -42.8°
Exits shadow 09:56:12 - 161° (SSE) 6,063 11.9 -42.1°
Sets 09:56:35 0° 160° (SSE) 6,146 12.0 -42.0°
